Wind_Speed
8 7 6 5 4 3 2 2 3 4 6 8 9 9 10 11 11 11 11 11 11 11 11 11 10 10 10 9 10 11 11 10 10 11 11 11 11 10 11 12 12 12 12 11 11 11 10 10 9
9 8 7 6 4 4 2 3 5 6 7 8 9 10 11 12 12 12 12 12 11 11 12 11 11 11 10 10 11 11 11 11 11 12 12 12 12 12 12 12 13 13 13 12 12 11 11 11 10
10 9 8 7 6 5 3 4 6 8 8 9 10 11 12 13 12 12 12 12 11 11 11 12 11 11 11 11 11 11 12 13 13 13 13 13 13 13 13 13 13 13 13 13 13 12 11 11 11
10 9 10 9 7 6 5 4 6 8 10 11 12 12 11 13 12 12 11 12 11 11 12 12 11 11 11 12 12 12 12 13 14 14 14 14 14 14 14 13 12 12 12 13 13 13 12 12 12
10 10 10 9 8 7 6 6 8 8 11 12 11 12 12 13 13 12 12 12 12 12 12 12 12 12 13 13 13 12 13 14 14 14 14 15 15 15 14 14 13 13 13 13 13 13 13 13 12
11 12 12 11 9 8 8 9 9 9 11 12 12 13 13 14 14 14 13 12 12 13 13 13 13 13 13 13 13 14 14 14 14 14 15 15 14 15 14 14 14 14 14 14 14 14 14 14 14
12 12 12 12 10 9 9 10 10 10 11 12 13 14 14 14 14 14 15 14 14 14 13 14 14 14 14 14 13 14 14 14 14 15 15 15 15 15 15 15 14 14 14 15 15 15 15 15 15
13 13 13 12 11 10 10 10 10 11 12 12 13 14 14 14 15 15 16 16 15 15 14 14 15 14 13 13 14 14 14 14 14 15 14 14 14 14 14 15 15 15 15 15 16 16 16 16 16
15 14 13 13 12 11 11 11 11 12 12 12 13 14 14 15 16 16 16 16 16 16 14 14 15 14 14 13 14 14 14 14 14 14 13 13 13 14 14 15 16 16 16 16 16 16 16 16 16
16 14 13 13 13 13 12 13 14 14 13 13 13 14 16 16 17 17 16 16 16 16 15 15 14 14 13 13 14 14 13 14 14 13 12 13 13 13 14 15 15 16 16 16 16 16 16 15 16
16 14 13 13 14 14 12 13 15 15 14 13 14 16 17 17 17 16 16 17 16 15 14 14 14 14 13 13 13 13 13 14 14 13 13 13 13 13 14 14 14 14 14 14 15 15 15 15 16
16 13 14 15 15 14 13 13 15 15 14 13 15 17 17 17 17 17 16 17 16 15 14 14 14 13 12 13 13 12 12 12 12 13 12 12 13 13 13 13 13 13 14 14 14 14 14 15 16
14 13 14 13 13 14 14 14 14 14 13 14 15 17 18 17 18 17 15 14 15 14 13 13 13 12 11 12 12 12 12 11 11 12 12 11 12 12 13 13 13 14 14 14 13 14 15 16 16
14 14 13 13 13 14 16 15 15 14 14 14 15 16 16 16 16 16 15 14 14 13 12 11 11 11 10 10 10 11 12 12 11 11 12 12 12 11 12 12 13 14 13 13 13 14 15 15 16
15 15 14 13 14 14 16 16 15 14 14 14 14 14 15 14 14 14 12 12 12 12 12 11 10 10 10 10 10 10 11 11 11 11 12 12 11 10 10 11 12 13 13 14 14 14 16 17 17
16 15 14 13 14 14 15 16 16 15 14 14 14 14 14 14 13 12 11 11 11 11 11 11 11 11 11 10 9 10 10 10 11 11 11 11 12 11 11 11 12 13 13 14 14 15 15 16 16
16 15 14 13 15 15 15 15 15 16 15 15 15 14 13 14 13 13 12 12 12 12 12 12 11 12 11 10 9 9 10 10 10 11 11 12 13 13 13 13 12 12 13 13 13 14 14 15 16
15 15 14 14 15 15 15 15 15 15 15 15 14 14 14 15 15 13 12 13 13 12 12 12 11 11 11 10 10 9 9 10 10 10 12 13 13 13 13 13 12 13 13 13 13 13 14 14 15
15 16 15 14 15 15 16 15 16 15 15 15 15 15 15 15 16 16 14 13 12 12 12 12 11 10 10 10 10 10 10 10 10 10 11 12 12 13 13 13 13 13 13 14 14 14 15 14 15
16 16 15 15 15 16 17 17 17 16 16 16 16 16 16 15 14 14 14 14 12 11 11 11 10 10 9 10 10 10 10 10 11 11 11 12 12 12 12 12 12 13 14 14 14 14 14 15 16
15 16 16 16 16 17 17 17 16 15 15 16 16 17 16 15 15 14 14 13 12 11 10 10 10 10 10 10 10 10 10 10 11 11 11 11 11 11 12 12 12 12 14 14 13 14 14 14 14
15 16 17 17 17 16 16 17 14 13 14 15 16 16 15 15 15 14 14 15 14 12 10 9 9 9 10 10 10 9 9 10 11 12 12 11 11 10 11 12 12 12 12 13 13 13 14 14 13
16 16 17 17 17 17 16 18 15 15 16 16 16 15 14 14 14 14 14 15 12 11 11 10 9 9 10 10 9 9 10 10 11 12 12 12 11 10 10 11 11 11 11 12 13 13 14 14 14
16 17 17 18 17 17 15 17 16 16 16 17 16 14 12 13 13 13 13 12 10 11 11 10 10 10 10 10 10 10 10 11 11 11 12 12 11 11 10 11 11 11 12 13 13 14 14 14 14
16 16 18 18 17 16 15 17 16 16 15 15 14 12 11 12 12 12 11 11 10 10 10 10 10 10 10 10 10 10 10 11 11 11 12 12 11 11 10 10 10 11 12 12 13 14 14 14 15
17 17 18 18 16 15 15 16 16 14 14 13 12 11 10 11 11 11 11 10 10 10 10 10 10 10 10 10 10 10 11 11 11 11 11 11 11 10 10 10 11 11 12 13 13 14 15 15 15
17 18 17 17 17 17 17 17 15 14 13 11 11 11 10 10 10 10 10 10 10 11 11 11 11 11 12 11 10 10 10 11 11 11 11 11 11 11 11 11 12 12 13 13 13 14 14 15 15
17 17 17 17 19 19 17 16 14 13 13 13 12 11 10 10 10 9 10 10 11 12 12 12 12 12 12 12 12 12 11 11 11 12 12 12 11 11 11 11 12 12 12 13 13 14 14 15 15
17 17 17 17 18 19 18 16 15 14 13 13 12 10 9 9 11 10 10 10 12 13 13 13 12 12 12 12 12 12 12 12 12 12 12 12 12 12 12 12 13 13 13 13 13 13 13 14 15
16 17 17 17 18 19 19 17 15 14 14 13 12 11 10 10 11 11 11 12 12 12 12 11 11 12 12 12 12 12 12 12 12 13 13 13 12 12 12 12 13 14 14 14 14 14 14 15 15
Wind_Direction
189 185 185 186 201 211 243 291 317 312 309 314 321 325 326 323 321 318 317 312 311 309 306 305 300 296 295 291 287 289 286 283 282 279 278 276 276 275 275 273 271 268 266 265 265 261 254 256 257
194 194 194 194 212 223 228 283 302 311 312 312 315 323 324 321 317 315 314 313 313 309 307 306 301 296 292 289 284 284 283 280 279 277 275 274 274 274 273 271 270 268 264 262 262 261 256 256 255
199 202 205 206 216 229 230 268 295 306 314 310 314 319 319 319 314 313 314 315 317 314 311 309 302 295 289 285 281 279 279 280 279 275 273 273 272 271 270 269 271 267 263 260 260 260 260 261 257
207 209 213 216 224 240 239 261 287 298 304 309 314 318 317 314 314 317 320 319 318 316 312 307 301 296 289 283 282 278 277 279 280 277 272 272 272 271 268 265 267 266 262 259 259 259 260 262 260
215 217 215 219 234 244 249 254 277 289 305 306 309 313 314 313 314 318 320 318 316 313 311 306 299 295 290 284 281 280 281 281 281 279 274 273 273 271 265 263 264 263 263 262 260 260 260 259 260
223 224 221 224 236 242 254 266 277 291 302 304 305 307 309 314 311 312 313 313 311 307 306 302 296 294 290 285 281 280 283 285 281 279 277 272 271 268 264 263 262 263 263 265 263 259 259 258 258
227 224 226 228 236 244 252 267 273 289 294 299 302 306 311 315 312 313 315 313 307 303 303 300 295 292 288 286 282 282 283 283 281 278 275 271 268 265 265 261 261 262 262 264 264 262 260 258 259
228 227 229 237 245 252 261 270 276 288 290 291 297 303 311 314 311 311 311 306 304 301 300 297 295 292 289 285 281 281 284 283 281 279 276 271 266 263 265 262 262 262 261 262 264 265 263 261 259
232 230 231 240 248 256 259 267 277 282 290 291 296 302 311 313 311 308 306 299 300 300 299 296 292 291 286 284 282 283 284 286 282 280 277 270 266 263 263 264 264 263 262 262 264 266 265 260 258
233 229 230 238 249 254 259 261 272 275 283 295 297 305 312 312 311 306 304 301 298 301 300 297 296 296 288 283 283 285 287 286 287 283 275 269 264 263 265 267 265 264 263 264 265 265 263 262 258
235 234 232 239 247 249 250 257 265 269 279 293 300 305 312 315 313 307 305 303 302 303 301 298 296 294 289 284 283 283 286 286 287 286 277 271 266 265 268 269 263 262 266 265 264 264 263 262 259
236 237 239 241 244 249 248 252 258 271 281 288 297 303 308 311 314 311 310 307 305 304 300 295 296 293 287 282 281 283 286 288 286 284 278 271 270 269 270 271 268 266 266 266 266 266 266 261 261
235 234 239 238 244 249 252 256 264 272 285 290 297 302 306 311 315 315 317 313 311 306 301 297 294 294 289 284 285 283 287 287 285 280 273 271 270 271 274 274 271 270 266 266 266 266 266 264 263
234 235 238 240 247 248 254 260 266 275 285 295 301 303 308 312 317 321 321 317 312 313 307 304 295 295 291 288 290 289 285 285 285 280 273 272 271 274 276 274 275 273 271 269 269 271 270 266 267
236 238 240 243 247 249 255 263 269 275 285 295 301 305 310 315 322 325 321 317 316 316 313 308 303 296 294 290 292 292 292 289 285 280 279 276 272 274 277 277 276 276 274 272 273 275 270 266 266
237 238 240 242 247 252 257 262 271 272 279 289 299 306 307 312 320 323 318 317 317 315 313 311 306 302 298 294 290 294 295 291 287 285 283 280 278 273 277 276 276 276 275 274 275 276 271 269 268
239 240 243 244 249 253 260 266 268 268 277 287 295 298 301 308 314 319 315 313 315 315 313 311 310 308 302 294 292 297 295 291 290 291 287 284 282 277 276 276 277 279 281 279 274 274 272 271 269
240 241 243 248 251 253 261 266 266 270 279 287 291 294 299 304 310 311 312 310 309 312 312 310 310 309 304 297 294 294 294 293 293 292 291 287 284 280 278 279 279 279 281 280 276 274 273 274 272
239 241 244 248 252 255 263 267 270 274 276 281 285 291 293 299 306 305 308 309 305 307 309 305 303 305 301 296 296 294 294 295 296 294 294 292 288 285 285 283 281 280 282 281 278 279 276 276 275
238 241 242 245 249 260 266 268 270 271 273 278 284 290 292 295 301 302 305 309 306 302 303 304 299 297 300 297 294 295 296 297 299 296 292 290 289 288 287 286 287 286 285 284 280 282 280 280 277
241 245 248 251 253 260 266 269 269 268 268 275 281 289 290 294 296 295 300 306 302 297 298 301 301 297 297 296 295 294 295 297 298 298 291 289 292 290 288 288 292 285 285 286 286 283 285 286 281
242 245 250 251 256 260 264 269 261 268 271 278 285 289 290 292 293 293 294 301 297 289 289 294 295 293 295 293 289 291 294 295 294 292 293 291 294 293 291 291 290 288 289 292 293 290 289 292 291
243 244 246 250 257 259 265 271 264 267 271 275 281 284 283 287 287 291 297 297 291 286 287 292 293 291 291 291 288 288 293 294 292 292 294 292 291 292 293 292 293 291 293 294 294 295 293 293 293
244 244 245 250 252 256 266 273 269 271 276 276 278 277 278 284 285 289 296 294 285 287 288 287 289 292 292 291 288 288 292 295 294 294 295 295 291 290 294 297 294 292 292 294 295 296 297 296 295
242 246 247 250 253 257 267 273 276 271 273 274 278 277 284 290 288 290 292 288 287 287 287 286 292 296 293 290 286 288 290 292 295 296 296 296 291 291 294 297 297 296 296 299 299 298 300 298 297
242 244 250 255 258 258 264 273 276 269 270 270 273 284 291 291 284 288 289 288 286 284 286 290 294 295 296 298 290 285 287 291 293 298 299 298 294 295 295 297 298 298 297 300 301 303 302 301 300
244 245 248 252 258 262 265 272 274 269 265 268 276 288 293 291 285 288 289 293 288 286 288 292 290 291 293 296 292 286 289 292 293 300 302 304 304 298 295 292 295 298 297 300 304 307 304 303 302
243 245 245 251 258 262 265 264 266 267 264 269 277 285 291 284 286 287 285 282 283 286 288 289 288 287 290 291 291 293 294 298 298 302 304 304 305 301 297 293 294 298 298 302 305 304 305 304 303
242 243 245 251 259 266 266 266 269 269 265 268 269 274 284 288 285 287 291 294 292 288 284 285 288 288 287 286 286 288 289 289 292 296 299 299 299 298 295 295 295 296 298 302 305 304 305 308 309
245 245 249 255 260 263 267 271 266 266 264 264 265 269 276 282 280 282 289 293 293 294 290 290 290 291 290 289 287 286 285 285 285 289 293 294 295 297 298 297 296 295 295 297 299 302 305 308 309
Height
5897 5897 5898 5899 5899 5899 5898 5898 5897 5897 5896 5896 5895 5895 5895 5894 5894 5895 5892 5889 5888 5887 5886 5886 5885 5884 5884 5883 5883 5883 5882 5882 5882 5882 5881 5881 5881 5881 5880 5880 5879 5879 5879 5879 5879 5879 5879 5879 5879
5896 5896 5897 5898 5898 5897 5897 5897 5896 5896 5895 5895 5895 5894 5894 5893 5892 5891 5889 5888 5887 5886 5885 5884 5883 5883 5882 5882 5881 5880 5880 5880 5880 5880 5879 5879 5879 5879 5878 5878 5878 5877 5877 5877 5877 5877 5877 5877 5877
5894 5895 5896 5896 5896 5896 5896 5895 5894 5894 5894 5893 5893 5893 5892 5891 5890 5889 5887 5886 5885 5884 5883 5882 5881 5881 5880 5880 5879 5878 5878 5878 5878 5877 5877 5877 5876 5876 5876 5876 5876 5875 5875 5875 5875 5875 5875 5875 5875
5893 5894 5895 5895 5894 5894 5893 5893 5893 5893 5892 5892 5891 5891 5891 5890 5888 5887 5885 5884 5883 5882 5881 5880 5879 5878 5878 5877 5877 5876 5876 5875 5875 5874 5874 5874 5874 5874 5874 5873 5873 5873 5873 5873 5873 5873 5873 5873 5873
5891 5892 5892 5893 5892 5892 5892 5892 5891 5891 5891 5890 5889 5889 5889 5888 5886 5885 5884 5883 5882 5880 5879 5878 5877 5876 5875 5874 5874 5874 5873 5872 5872 5871 5871 5871 5871 5871 5871 5871 5871 5871 5871 5871 5871 5871 5871 5871 5871
5889 5890 5890 5891 5891 5890 5890 5890 5889 5889 5889 5888 5888 5887 5886 5886 5884 5883 5882 5880 5879 5878 5878 5876 5875 5874 5873 5872 5871 5871 5870 5869 5869 5868 5868 5868 5868 5867 5867 5867 5868 5868 5868 5868 5868 5868 5868 5868 5869
5887 5887 5887 5888 5889 5888 5888 5887 5887 5887 5887 5886 5886 5885 5884 5883 5881 5880 5879 5878 5877 5876 5874 5874 5873 5872 5870 5869 5868 5868 5867 5866 5865 5865 5864 5864 5864 5864 5864 5864 5864 5865 5865 5865 5865 5865 5865 5866 5866
5884 5885 5885 5885 5885 5886 5885 5884 5884 5884 5884 5884 5884 5883 5882 5881 5879 5878 5876 5875 5874 5873 5871 5870 5869 5868 5867 5866 5866 5865 5864 5863 5862 5861 5861 5860 5860 5860 5860 5860 5861 5861 5862 5862 5862 5862 5862 5862 5862
5881 5883 5882 5882 5882 5883 5882 5882 5882 5881 5881 5881 5881 5880 5879 5878 5877 5875 5873 5871 5870 5869 5868 5867 5866 5865 5864 5863 5863 5862 5861 5860 5859 5858 5857 5857 5857 5857 5857 5857 5857 5858 5858 5858 5858 5858 5858 5859 5859
5878 5879 5880 5880 5880 5879 5879 5879 5879 5879 5878 5878 5878 5878 5877 5875 5874 5872 5870 5867 5865 5866 5865 5864 5862 5861 5860 5860 5859 5858 5857 5857 5856 5855 5854 5853 5854 5854 5854 5854 5854 5854 5854 5855 5854 5854 5854 5855 5855
5874 5876 5876 5876 5876 5876 5876 5877 5877 5876 5876 5876 5876 5875 5873 5872 5871 5869 5866 5864 5862 5862 5861 5859 5858 5858 5857 5856 5855 5855 5854 5853 5852 5852 5851 5850 5851 5851 5851 5851 5850 5851 5851 5851 5851 5850 5850 5851 5851
5872 5873 5873 5874 5874 5873 5873 5874 5874 5874 5874 5873 5872 5872 5871 5869 5868 5866 5863 5862 5860 5858 5858 5856 5855 5854 5853 5853 5852 5851 5850 5850 5849 5848 5848 5848 5848 5848 5848 5847 5847 5847 5847 5847 5847 5847 5847 5847 5848
5869 5870 5871 5871 5870 5870 5870 5871 5871 5872 5871 5870 5869 5869 5868 5866 5864 5862 5860 5858 5857 5855 5854 5853 5852 5851 5850 5849 5849 5848 5847 5847 5846 5846 5845 5845 5845 5844 5845 5844 5844 5844 5844 5844 5843 5843 5843 5843 5844
5866 5866 5867 5868 5868 5867 5867 5868 5868 5868 5869 5867 5866 5866 5865 5863 5861 5859 5857 5855 5854 5852 5851 5850 5848 5847 5847 5846 5846 5845 5845 5844 5843 5843 5842 5842 5842 5842 5841 5841 5841 5841 5840 5840 5840 5839 5839 5839 5839
5862 5863 5864 5865 5865 5865 5865 5865 5865 5866 5866 5865 5864 5863 5862 5861 5859 5857 5855 5853 5852 5850 5849 5848 5846 5845 5845 5844 5843 5842 5842 5841 5840 5840 5839 5839 5839 5838 5838 5838 5838 5837 5837 5836 5836 5836 5835 5835 5835
5858 5860 5861 5862 5862 5862 5864 5863 5863 5862 5863 5863 5862 5861 5860 5859 5857 5856 5853 5851 5850 5848 5847 5846 5845 5844 5843 5841 5841 5840 5839 5838 5837 5837 5836 5836 5836 5835 5835 5835 5835 5834 5833 5833 5832 5831 5831 5830 5830
5855 5856 5858 5859 5859 5860 5860 5860 5860 5859 5860 5860 5859 5858 5857 5856 5855 5853 5851 5849 5847 5846 5844 5843 5842 5841 5840 5839 5838 5837 5836 5836 5835 5834 5833 5833 5832 5832 5832 5831 5831 5831 5830 5829 5828 5827 5826 5826 5826
5852 5853 5854 5855 5855 5856 5856 5856 5857 5857 5857 5857 5856 5855 5854 5853 5852 5850 5848 5846 5845 5843 5841 5840 5839 5838 5837 5836 5836 5835 5834 5833 5832 5831 5830 5829 5829 5829 5828 5828 5827 5827 5826 5825 5824 5823 5822 5822 5821
5848 5849 5850 5852 5852 5852 5853 5853 5854 5854 5854 5853 5852 5852 5851 5850 5848 5846 5845 5844 5841 5840 5839 5837 5836 5835 5835 5834 5834 5833 5832 5831 5829 5828 5827 5826 5825 5825 5825 5824 5824 5823 5823 5821 5820 5819 5818 5817 5817
5844 5846 5847 5848 5848 5849 5849 5850 5850 5850 5850 5849 5849 5848 5848 5847 5846 5844 5842 5840 5838 5837 5837 5835 5834 5833 5832 5832 5831 5830 5829 5828 5827 5826 5825 5823 5822 5821 5821 5820 5820 5819 5819 5817 5816 5815 5814 5813 5812
5841 5842 5843 5844 5845 5845 5846 5846 5846 5847 5846 5846 5845 5844 5844 5843 5842 5840 5839 5837 5836 5834 5833 5833 5831 5830 5830 5829 5828 5828 5827 5825 5824 5823 5822 5820 5819 5818 5817 5817 5816 5815 5814 5813 5812 5811 5810 5809 5808
5837 5839 5840 5840 5841 5841 5842 5841 5843 5843 5842 5842 5841 5840 5839 5839 5839 5837 5835 5834 5833 5831 5830 5829 5828 5828 5827 5826 5826 5825 5824 5823 5822 5820 5819 5818 5817 5815 5814 5813 5812 5811 5811 5809 5808 5807 5806 5805 5803
5834 5835 5836 5836 5836 5837 5838 5837 5839 5839 5838 5838 5837 5836 5836 5836 5835 5833 5832 5830 5829 5829 5828 5826 5825 5825 5824 5823 5823 5822 5821 5820 5819 5817 5816 5815 5814 5812 5811 5810 5809 5808 5807 5806 5805 5804 5803 5801 5799
5830 5831 5831 5832 5832 5834 5834 5833 5834 5834 5834 5834 5833 5832 5832 5831 5831 5829 5828 5827 5827 5826 5825 5824 5823 5822 5821 5820 5820 5819 5818 5817 5816 5815 5813 5812 5810 5809 5808 5807 5806 5805 5804 5803 5801 5800 5798 5797 5795
5825 5826 5827 5827 5828 5830 5830 5829 5830 5830 5829 5829 5829 5828 5828 5827 5827 5826 5825 5825 5824 5823 5822 5821 5820 5819 5818 5817 5816 5815 5815 5814 5813 5811 5810 5809 5808 5806 5805 5804 5803 5802 5801 5799 5798 5796 5794 5793 5791
5820 5822 5823 5824 5824 5826 5826 5825 5826 5826 5825 5825 5825 5825 5824 5823 5822 5822 5822 5821 5821 5820 5819 5818 5817 5816 5815 5814 5813 5813 5812 5811 5810 5809 5807 5806 5804 5803 5801 5801 5800 5799 5797 5796 5794 5793 5791 5789 5787
5816 5817 5819 5820 5820 5821 5821 5821 5821 5821 5821 5822 5822 5821 5820 5820 5819 5819 5818 5818 5817 5817 5816 5815 5813 5813 5812 5811 5811 5810 5809 5808 5807 5806 5804 5803 5801 5800 5798 5797 5796 5795 5794 5793 5791 5789 5787 5785 5783
5813 5814 5815 5815 5816 5816 5817 5817 5818 5817 5818 5818 5817 5817 5816 5816 5816 5815 5815 5814 5813 5812 5812 5811 5810 5809 5809 5808 5807 5806 5805 5805 5804 5802 5801 5800 5798 5797 5796 5794 5793 5792 5790 5789 5787 5786 5784 5782 5780
5810 5811 5811 5812 5812 5812 5812 5815 5814 5814 5814 5814 5813 5813 5813 5813 5813 5812 5811 5810 5809 5808 5808 5807 5806 5806 5805 5805 5804 5803 5802 5801 5800 5799 5798 5797 5795 5794 5793 5791 5790 5788 5787 5785 5784 5782 5780 5778 5776
5806 5807 5808 5808 5808 5808 5808 5812 5809 5810 5809 5809 5809 5809 5809 5809 5809 5809 5808 5807 5806 5805 5804 5803 5803 5802 5802 5801 5800 5799 5798 5797 5797 5796 5794 5793 5791 5790 5789 5787 5786 5784 5782 5781 5780 5778 5777 5775 5773